Regional Weather Roundup
Issued by NWS

Home | Current Version | Previous Version | Graphics & Text | Print | Product List | Glossary On
Versions: 1 2 3 4 5 6 7 8 9 10 11 12 13 14 15 16 17 18 19 20 21 22 23 24 25 26 27 28 29 30 31 32 33 34 35 36 37 38 39 40 41 42 43 44 45 46 47 48 49 50
000
ASUS43 KDTX 291310
RWRMI
MICHIGAN HOURLY REGIONAL WEATHER ROUNDUP
NATIONAL WEATHER SERVICE DETROIT/PONTIAC MI
900 AM EDT SAT AUG 29 2015

NOTE: "FAIR" INDICATES FEW OR NO CLOUDS BELOW 12,000 FEET WITH NO
SIGNIFICANT WEATHER AND/OR OBSTRUCTION TO VISIBILITY.

MIZ047>049-052>055-059>063-066>070-074>076-081>083-291400-
SOUTHEAST LOWER MICHIGAN

CITY           SKY/WX    TMP DP  RH WIND       PRES   REMARKS
ADRIAN         CLOUDY    64  59  83 CALM      30.15S
ALMA           LGT RAIN  61  60  98 CALM      30.14S
ANN ARBOR      CLOUDY    65  61  87 CALM      30.15S
BAD AXE        CLOUDY    62  61  96 CALM      30.16S
DETROIT CITY   CLOUDY    68  63  84 CALM      30.15S
DETROIT        CLOUDY    67  63  87 CALM      30.15F
FLINT          CLOUDY    66  62  87 E7        30.15S FOG
GROSSE ILE     CLOUDY    70  64  83 S5        30.14S
HILLSDALE      CLOUDY    65  61  88 SE3       30.14S
HOWELL         CLOUDY    64  63  96 CALM      30.15S

CITY           SKY/WX    TMP DP  RH WIND       PRES   REMARKS
JACKSON        CLOUDY    65  59  81 S7        30.14S
LAMBERTVILLE   PTSUNNY   67  61  81 CALM      30.15S
LANSING        CLOUDY    64  61  90 CALM      30.14S
LAPEER         NOT AVBL
MASON          CLOUDY    64  60  87 CALM      30.14S
MONROE         PTSUNNY   65  62  91 CALM      30.14S
MT. CLEMENS    CLOUDY    65  63  92 N3        30.14R FOG
PONTIAC        CLOUDY    65  63  93 E3        30.15S FOG
PORT HOPE        N/A     63  59  87 SW5       30.14R
PORT HURON     CLOUDY    63  63 100 CALM      30.16S FOG
TRI CITIES     LGT RAIN  63  60  90 CALM      30.15S
YPSILANTI      CLOUDY    68  64  87 E3        30.15F
$$
MIZ043>046-050>051-056>058-064>065-071>073-077>080-291400-
SOUTHWEST LOWER MICHIGAN

CITY           SKY/WX    TMP DP  RH WIND       PRES   REMARKS
BATTLE CREEK   CLOUDY    65  58  78 SE6       30.12F
BENTON HARBOR  RAIN      62  61  96 E3        30.10S FOG
BIG RAPIDS     CLOUDY    59  58  96 CALM      30.14R
COLDWATER      CLOUDY    64  60  88 CALM      30.13S
HOLLAND        LGT RAIN  63  61  93 E3        30.12R FOG
GRAND RAPIDS   LGT RAIN  62  61  96 E5        30.12S FOG
KALAMAZOO      LGT RAIN  64  59  83 CALM      30.12S
MARSHALL       CLOUDY    64  59  85 CALM      30.12F
MUSKEGON       LGT RAIN  61  58  90 SE7       30.11R FOG
$$
MIZ016>042-291400-
NORTHERN LOWER MICHIGAN

CITY           SKY/WX    TMP DP  RH WIND       PRES   REMARKS
ALPENA         CLOUDY    62  59  90 SW6       30.14S
BEAVER ISLAND  CLOUDY    63  60  90 SW9       30.10R
BELLAIRE       CLOUDY    61  59  93 CALM      30.13S
CADILLAC       CLOUDY    59  58  97 NE3       30.13S FOG
CHARLEVOIX     CLOUDY    61  60  98 S6        30.14S FOG
FRANKFORT      CLOUDY    60  59  97 SE3       30.12R FOG
GAYLORD        LGT RAIN  62  60  93 CALM      30.14S FOG
GRAYLING       CLOUDY    58  56  93 CALM      30.14F
HARBOR SPRINGS DRIZZLE   61  60  96 SW5       30.12S
HOUGHTON LAKE  CLOUDY    58  55  90 CALM      30.14S
MANISTEE       CLOUDY    61  55  82 E5        30.13R
OSCODA         CLOUDY    62  57  84 W6        30.14R
PELLSTON       CLOUDY    63  60  90 SW5       30.12R
TRAVERSE CITY  LGT RAIN  62  59  90 CALM      30.12R FOG
$$
MIZ007>008-015-291400-
EASTERN UPPER MICHIGAN

CITY           SKY/WX    TMP DP  RH WIND       PRES   REMARKS
KINROSS        CLOUDY    63  59  88 SW6       30.08S
MACKINAC ISLAN CLOUDY    64  60  88 SW12G21   30.09S
NEWBERRY       CLOUDY    62  56  82 S13G18    30.06S
S. S. MARIE    CLOUDY    64  59  83 SW9       30.06R
$$
MIZ004>006-011>014-085-291400-
CENTRAL UPPER MICHIGAN

CITY           SKY/WX    TMP DP  RH WIND       PRES   REMARKS
MANISTIQUE     MOSUNNY   62  58  87 S9        30.07S
ESCANABA       SUNNY     61  55  82 S7        30.07S
MENOMINEE      CLOUDY    59  55  88 CALM      30.08R
SAWYER-GWINN   CLOUDY    61  55  82 SW10      30.05R
$$
MIZ001>003-009>011-084-291400-
WESTERN UPPER MICHIGAN

CITY           SKY/WX    TMP DP  RH WIND       PRES   REMARKS
IRON MOUNTAIN  SUNNY     61  56  83 S9        30.04F
HOUGHTON       PTSUNNY   62  57  83 NW6       30.02R
COPPER HARBOR    N/A     65  57  75 VRB3      30.00R
IRONWOOD       PTSUNNY   61  55  82 SE6       30.00R
$$

ABBREVIATIONS USED IN REMARKS
   TC - TEMPERATURE IN CELSIUS
  WCI - WIND CHILL INDEX
   HX - HEAT INDEX
  VSB - VISIBILITY



USA.gov is the U.S. government's official web portal to all federal, state and local government web resources and services.